Date String (YYYY-MM-DD hh:mm:ss) UTC,Instrument flags,Ambient pressure (hPa),Sample flow (lpm),Bypass flow (lpm),Sample temperature (°C),Ambient temperature (°C),ASC tube jacket temperature (°C),LED temperature (°C),Box temperature (°C),Sample RH (%),Span deviation,Mass concentration (μg/m³),Mass concentration (μg/m³),Mass concentration (μg/m³)
DateTimeUTC,F1_M11,P_M11,Q1_M11,Q2_M11,T1_M11,T2_M11,T3_M11,T4_M11,T5_M11,U1_M11,ZSPAN_M11,X2_M11,X0_M11,X1_M11
2021-08-27 12:00:00,,0827.3,5.00,0.00,29.7,28.6,00.0,38.9,31.5,20.0,0000.0,0003.09,0005.76,0002.72
2021-08-27 12:01:00,,0827.0,4.99,0.00,29.8,28.7,00.0,38.9,31.6,20.0,0002.6,0003.04,0005.43,0002.72
2021-08-27 12:02:00,,0826.9,4.99,0.00,29.8,28.8,00.0,38.9,31.6,20.0,0001.2,0003.05,0005.48,0002.70
2021-08-27 12:03:00,,0827.0,5.01,0.00,29.8,28.8,00.0,38.9,31.6,20.1,0000.7,0003.01,0005.30,0002.70
2021-08-27 12:04:00,,0826.8,5.00,0.00,29.8,28.8,00.0,38.9,31.6,20.1,0000.0,0002.98,0005.21,0002.69
2021-08-27 12:05:00,,0826.8,5.00,0.00,29.8,28.8,00.0,38.9,31.6,20.1,0000.0,0002.94,0005.12,0002.68
2021-08-27 12:06:00,,0826.8,5.00,0.00,29.9,28.9,00.0,38.9,31.6,20.2,0000.0,0002.92,0004.95,0002.68
2021-08-27 12:07:00,,0826.8,5.00,0.00,29.9,28.9,00.0,38.9,31.6,20.2,0000.0,0002.93,0004.66,0002.69
2021-08-27 12:08:00,,0826.8,5.01,0.00,29.9,28.9,00.0,38.9,31.7,20.2,0000.0,0002.94,0004.70,0002.68
2021-08-27 12:09:00,,0826.8,4.99,0.00,29.9,28.9,00.0,39.0,31.6,20.2,0000.0,0002.89,0004.55,0002.68
2021-08-27 12:10:00,,0826.8,5.00,0.00,29.9,28.9,00.0,39.0,31.6,20.2,0000.0,0002.88,0004.50,0002.68
2021-08-27 12:11:00,,0826.9,5.00,0.00,29.9,28.9,00.0,39.0,31.6,20.1,0000.9,0002.90,0004.58,0002.69
2021-08-27 12:12:00,,0827.1,5.01,0.00,29.9,28.9,00.0,39.0,31.7,20.1,0001.1,0002.93,0003.68,0002.69
2021-08-27 12:13:00,,0826.9,5.00,0.00,29.9,28.9,00.0,39.0,31.7,20.1,0001.4,0002.94,0003.61,0002.70
2021-08-27 12:14:00,,0826.8,5.00,0.00,30.0,28.9,00.0,39.0,31.7,20.1,0001.7,0002.97,0003.67,0002.69
2021-08-27 12:15:00,,0827.0,4.99,0.00,30.0,28.9,00.0,39.0,31.7,20.0,0001.7,0003.00,0003.78,0002.69
2021-08-27 12:16:00,,0827.0,5.00,0.00,30.0,28.9,00.0,39.0,31.7,20.0,0001.6,0002.98,0003.75,0002.68
2021-08-27 12:17:00,,0827.1,5.00,0.00,30.0,29.0,00.0,39.1,31.7,20.1,0001.7,0003.00,0003.79,0002.69
2021-08-27 12:18:00,,0827.3,5.00,0.00,30.0,29.0,00.0,39.1,31.7,19.9,0001.5,0003.01,0004.23,0002.70
2021-08-27 12:19:00,,0826.8,5.00,0.00,30.0,29.0,00.0,39.1,31.7,19.9,0002.0,0003.03,0004.91,0002.70
2021-08-27 12:20:00,,0827.1,5.00,0.00,30.0,29.0,00.0,39.1,31.7,19.9,0001.5,0003.04,0004.95,0002.71
2021-08-27 12:21:00,,0827.3,5.00,0.00,30.0,29.1,00.0,39.1,31.8,19.8,0001.9,0003.04,0004.91,0002.71
2021-08-27 12:22:00,,0827.2,5.00,0.00,30.1,29.0,00.0,39.1,31.8,19.9,0001.3,0003.03,0004.89,0002.70
2021-08-27 12:23:00,,0827.2,4.99,0.00,30.1,29.1,00.0,39.1,31.8,19.8,0001.1,0003.03,0006.00,0002.70
2021-08-27 12:24:00,,0827.2,5.00,0.00,30.1,29.1,00.0,39.1,31.9,19.8,0001.2,0003.07,0006.38,0002.72
2021-08-27 12:25:00,,0826.9,5.01,0.00,30.1,29.1,00.0,39.2,31.9,19.8,0000.0,0003.06,0006.34,0002.73
2021-08-27 12:26:00,,0826.8,5.00,0.00,30.1,29.1,00.0,39.2,31.8,19.8,0000.9,0003.05,0006.28,0002.74
2021-08-27 12:27:00,,0826.8,4.99,0.00,30.1,29.1,00.0,39.2,31.8,19.8,0002.8,0003.06,0006.62,0002.74
2021-08-27 12:28:00,,0826.8,5.01,0.00,30.1,29.1,00.0,39.2,31.8,19.7,0003.0,0003.05,0007.16,0002.73
2021-08-27 12:29:00,,0826.8,5.00,0.00,30.1,29.1,00.0,39.2,31.9,19.4,0003.0,0003.03,0006.68,0002.73
2021-08-27 12:30:00,,0826.9,4.99,0.00,30.2,29.1,00.0,39.2,31.9,19.6,0003.2,0003.02,0006.02,0002.75
2021-08-27 12:31:00,,0827.1,5.01,0.00,30.2,29.1,00.0,39.2,31.9,19.7,0003.1,0003.02,0006.01,0002.75
2021-08-27 12:32:00,,0827.0,5.00,0.00,30.2,29.1,00.0,39.2,31.9,19.8,0003.4,0003.04,0006.06,0002.76
2021-08-27 12:33:00,,0827.0,4.99,0.00,30.2,29.1,00.0,39.2,31.9,19.8,0003.4,0003.06,0006.14,0002.77
2021-08-27 12:34:00,,0826.9,4.99,0.00,30.2,29.2,00.0,39.3,32.0,19.7,0003.3,0003.07,0005.12,0002.77
2021-08-27 12:35:00,,0827.0,5.01,0.00,30.2,29.2,00.0,39.3,32.0,19.6,0003.2,0003.02,0004.68,0002.76
2021-08-27 12:36:00,,0827.1,5.00,0.00,30.2,29.2,00.0,39.3,32.0,19.5,0002.6,0003.03,0004.74,0002.76
2021-08-27 12:37:00,,0827.0,4.99,0.00,30.2,29.2,00.0,39.3,32.0,19.3,0002.4,0003.04,0004.78,0002.76
2021-08-27 12:38:00,,0827.0,5.00,0.00,30.3,29.3,00.0,39.3,32.0,19.3,0001.1,0003.08,0004.67,0002.76
2021-08-27 12:39:00,,0826.8,5.00,0.00,30.3,29.3,00.0,39.3,32.0,19.5,0000.5,0003.11,0004.10,0002.78
2021-08-27 12:40:00,,0826.8,4.99,0.00,30.3,28.6,00.0,39.3,31.8,19.6,0000.0,0003.12,0004.15,0002.78
2021-08-27 12:41:00,,0826.9,5.00,0.00,30.1,26.7,00.0,39.3,31.4,19.6,0000.0,0003.13,0004.18,0002.78
2021-08-27 12:42:00,,0827.0,5.00,0.00,30.0,26.4,00.0,39.2,31.2,19.8,0000.0,0003.16,0004.42,0002.78
2021-08-27 12:43:00,,0826.9,4.99,0.00,29.9,26.7,00.0,39.2,31.2,19.9,0000.0,0003.17,0004.45,0002.80
2021-08-27 12:44:00,,0826.9,5.00,0.00,29.8,27.1,00.0,39.1,31.3,20.0,0000.0,0003.17,0004.46,0002.81
2021-08-27 12:45:00,,0827.0,5.01,0.00,29.8,27.5,00.0,39.1,31.3,20.1,0000.0,0003.17,0004.46,0002.81
2021-08-27 12:46:00,,0826.8,4.98,0.00,29.8,27.8,00.0,39.1,31.4,20.0,0000.0,0003.18,0004.56,0002.81
2021-08-27 12:47:00,,0826.9,5.01,0.00,29.8,28.0,00.0,39.1,31.4,20.1,0000.0,0003.18,0004.57,0002.80
2021-08-27 12:48:00,,0826.9,5.00,0.00,29.8,28.2,00.0,39.0,31.5,20.1,0000.0,0003.18,0004.56,0002.80
2021-08-27 12:49:00,,0826.9,4.98,0.00,29.8,28.3,00.0,39.0,31.5,20.2,0000.0,0003.17,0004.50,0002.81
2021-08-27 12:50:00,,0826.9,5.01,0.00,29.8,28.5,00.0,39.0,31.5,20.0,0000.0,0003.16,0004.47,0002.81
2021-08-27 12:51:00,,0826.9,5.00,0.00,29.9,28.5,00.0,39.0,31.5,20.0,0000.0,0003.14,0004.56,0002.79
2021-08-27 12:52:00,,0826.9,5.01,0.00,29.9,28.6,00.0,39.0,31.6,19.8,0000.0,0003.13,0004.56,0002.79
2021-08-27 12:53:00,,0826.9,4.99,0.00,29.9,28.7,00.0,39.0,31.6,19.8,0000.0,0003.09,0004.36,0002.79
2021-08-27 12:54:00,,0827.0,5.00,0.00,29.9,28.8,00.0,39.0,31.7,19.7,0000.0,0003.06,0004.27,0002.78
2021-08-27 12:55:00,,0827.0,4.99,0.00,29.9,28.8,00.0,39.0,31.7,19.7,0000.0,0003.06,0004.28,0002.77
2021-08-27 12:56:00,,0827.0,5.00,0.00,29.9,28.9,00.0,39.0,31.7,19.7,0000.0,0003.10,0004.43,0002.78
2021-08-27 12:57:00,,0826.9,5.01,0.00,29.9,28.9,00.0,39.0,31.7,19.7,0000.0,0003.09,0004.36,0002.78
2021-08-27 12:58:00,,0827.1,5.00,0.00,30.0,28.9,00.0,39.0,31.7,19.6,0000.0,0003.09,0004.32,0002.78
2021-08-27 12:59:00,,0827.3,4.98,0.00,30.0,29.0,00.0,39.0,31.7,19.7,0000.0,0003.13,0004.40,0002.79
